EW7736 Weather Reports


Display with metric or nautical units.
time (UTC)temp
F
wind
direction
speed
MPH
gust
MPH
rain 1hr
in
rain 24hr
in
rain mn
in
humidity
%
barometer
mb
20260902004824 78 52 0.0 0.0 0.00 0.00 0.00 75 1016.9
20260902003755 78 52 0.0 0.0 0.00 0.00 0.00 75 1016.9
20260902002724 78 52 0.0 0.0 0.00 0.00 0.00 75 1017.0
20260902001656 79 52 0.0 0.0 0.00 0.00 0.00 75 1016.9
20260902000644 79 101 0.0 0.0 0.00 0.00 0.00 75 1016.9
20260901235639 79 39 0.0 4.0 0.00 0.00 0.00 75 1016.8
20260901234631 80 61 0.0 3.0 0.00 0.00 0.00 75 1016.9
20260901233616 80 83 0.0 4.0 0.00 0.00 0.00 74 1016.9
20260901231529 81 56 0.0 4.0 0.00 0.00 0.00 73 1016.9
20260901230529 82 97 0.0 2.0 0.00 0.00 0.00 72 1016.9
20260901225502 82 105 0.0 5.0 0.00 0.00 0.00 71 1017.0
20260901224458 83 37 1.0 5.0 0.00 0.00 0.00 70 1017.0
20260901223426 83 63 0.0 3.0 0.00 0.00 0.00 70 1017.1
20260901222355 83 44 1.0 5.0 0.00 0.00 0.00 69 1016.9
20260901221400 84 102 1.0 7.0 0.00 0.00 0.00 69 1016.9
20260901215306 83 102 1.0 6.0 0.00 0.00 0.00 70 1016.9
20260901214325 83 96 1.0 6.0 0.00 0.00 0.00 70 1016.8
20260901213316 83 90 1.0 6.0 0.00 0.00 0.00 69 1016.7
20260901212322 83 84 1.0 6.0 0.00 0.00 0.00 70 1016.6
20260901211346 84 51 2.0 5.0 0.00 0.00 0.00 68 1016.5
20260901210358 84 102 1.0 5.0 0.00 0.00 0.00 65 1016.5
20260901205404 84 91 1.0 5.0 0.00 0.00 0.00 68 1016.5
20260901204339 85 100 2.0 7.0 0.00 0.00 0.00 67 1016.5
20260901203342 84 141 3.0 8.0 0.00 0.00 0.00 66 1016.6
20260901202340 84 80 2.0 8.0 0.00 0.00 0.00 67 1016.6
20260901201316 84 94 2.0 8.0 0.00 0.00 0.00 68 1016.7
20260901200308 84 98 3.0 9.0 0.00 0.00 0.00 68 1016.8
20260901195315 84 96 3.0 9.0 0.00 0.00 0.00 68 1016.8
20260901194254 84 101 3.0 8.0 0.00 0.00 0.00 70 1016.8
20260901193302 84 106 3.0 8.0 0.00 0.00 0.00 70 1016.9
20260901192306 84 56 3.0 8.0 0.00 0.00 0.00 69 1017.0
20260901191310 84 82 4.0 8.0 0.00 0.00 0.00 69 1017.2
20260901190326 84 97 5.0 10.0 0.00 0.00 0.00 69 1017.3
20260901185256 85 104 2.0 10.0 0.00 0.00 0.00 68 1017.3
20260901184234 85 95 3.0 9.0 0.00 0.00 0.00 68 1017.6
20260901183205 85 101 4.0 11.0 0.00 0.00 0.00 69 1017.6
20260901182145 84 98 4.0 11.0 0.00 0.00 0.00 69 1017.6
20260901181207 85 91 4.0 10.0 0.00 0.00 0.00 69 1017.6
20260901180155 85 80 4.0 12.0 0.00 0.00 0.00 68 1017.9
20260901175220 85 112 5.0 12.0 0.00 0.00 0.00 69 1017.8
20260901174222 85 121 5.0 11.0 0.00 0.00 0.00 68 1017.9
20260901173225 85 122 4.0 11.0 0.00 0.00 0.00 68 1017.9
20260901172212 85 110 6.0 13.0 0.00 0.00 0.00 69 1018.0
20260901171145 85 97 5.0 13.0 0.00 0.00 0.00 67 1017.9
20260901165031 85 106 3.0 9.0 0.00 0.00 0.00 70 1017.9
20260901164046 85 94 3.0 9.0 0.00 0.00 0.00 70 1017.9
20260901163030 85 72 3.0 8.0 0.00 0.00 0.00 69 1018.0
20260901162021 85 94 2.0 7.0 0.00 0.00 0.00 71 1017.7
20260901160956 85 102 2.0 7.0 0.00 0.00 0.00 70 1017.8
20260901160019 85 49 3.0 10.0 0.00 0.00 0.00 70 1017.7
20260901154954 84 104 4.0 10.0 0.00 0.00 0.00 71 1017.6
20260901153922 84 100 2.0 9.0 0.00 0.00 0.00 72 1017.6
20260901152903 84 102 3.0 9.0 0.00 0.00 0.00 72 1017.7
20260901151917 83 101 2.0 8.0 0.00 0.00 0.00 73 1017.6
20260901144603 82 98 1.0 5.0 0.00 0.00 0.00 74 1017.6
20260901143545 81 109 2.0 7.0 0.00 0.00 0.00 74 1017.6
20260901142518 80 51 1.0 7.0 0.00 0.00 0.00 74 1017.6
20260901141459 79 34 0.0 6.0 0.00 0.00 0.00 74 1017.7
20260901140433 78 36 1.0 6.0 0.00 0.00 0.00 73 1017.6
20260901135413 78 56 1.0 5.0 0.00 0.00 0.00 72 1017.6
20260901134343 78 44 2.0 5.0 0.00 0.00 0.00 71 1017.7
20260901133318 77 46 1.0 4.0 0.00 0.00 0.00 68 1017.8
20260901132316 76 46 0.0 3.0 0.00 0.00 0.00 67 1017.9
20260901131338 76 48 0.0 5.0 0.00 0.00 0.00 65 1018.0
20260901130352 75 51 1.0 6.0 0.00 0.00 0.00 64 1018.1
20260901124221 75 51 1.0 5.0 0.00 0.00 0.00 59 1018.2
20260901123200 74 44 1.0 4.0 0.00 0.00 0.00 53 1018.3
20260901122138 74 45 1.0 5.0 0.00 0.00 0.00 52 1018.3
20260901121139 74 50 1.0 5.0 0.00 0.00 0.00 50 1018.2
20260901120121 73 53 2.0 4.0 0.00 0.00 0.00 43 1018.2
20260901113939 72 51 0.0 0.0 0.00 0.00 0.00 33 1017.9
20260901110704 72 49 0.0 0.0 0.00 0.00 0.00 32 1017.8
20260901105710 72 51 0.0 0.0 0.00 0.00 0.00 32 1017.8
20260901104728 72 51 0.0 0.0 0.00 0.00 0.00 33 1017.8
20260901103658 72 51 0.0 0.0 0.00 0.00 0.00 36 1017.7
20260901102717 72 51 0.0 0.0 0.00 0.00 0.00 37 1017.6
20260901100613 72 56 0.0 0.0 0.00 0.00 0.00 39 1017.5
20260901095618 72 49 0.0 0.0 0.00 0.00 0.00 38 1017.5
20260901094610 72 50 0.0 0.0 0.00 0.00 0.00 37 1017.5
20260901093616 72 50 0.0 0.0 0.00 0.00 0.00 36 1017.5
20260901091517 72 53 0.0 0.0 0.00 0.00 0.00 34 1017.5
20260901090448 72 51 0.0 0.0 0.00 0.00 0.00 33 1017.4
20260901085433 72 58 0.0 0.0 0.00 0.00 0.00 34 1017.4
20260901084407 72 56 0.0 0.0 0.00 0.00 0.00 34 1017.5
20260901083342 72 48 0.0 0.0 0.00 0.00 0.00 35 1017.6
20260901082334 72 48 0.0 0.0 0.00 0.00 0.00 37 1017.5
20260901081357 72 48 0.0 0.0 0.00 0.00 0.00 40 1017.6
20260901080333 72 48 0.0 0.0 0.00 0.00 0.00 41 1017.7
20260901075307 72 49 0.0 0.0 0.00 0.00 0.00 42 1017.6
20260901074255 72 56 0.0 0.0 0.00 0.00 0.00 41 1017.6
20260901073228 72 51 0.0 0.0 0.00 0.00 0.00 43 1017.6
20260901072238 72 51 0.0 0.0 0.00 0.00 0.00 44 1017.7
20260901071246 72 51 0.0 0.0 0.00 0.00 0.00 44 1017.7
20260901070240 72 51 0.0 0.0 0.00 0.00 0.00 44 1017.8
20260901065305 72 48 0.0 0.0 0.00 0.00 0.00 46 1017.8
20260901064327 72 84 0.0 0.0 0.00 0.00 0.00 50 1017.7
20260901063312 73 58 0.0 0.0 0.00 0.00 0.00 52 1017.9
20260901062315 73 58 0.0 0.0 0.00 0.00 0.00 54 1018.1
20260901060149 73 45 0.0 0.0 0.00 0.00 0.00 52 1018.2
20260901055119 73 89 0.0 0.0 0.00 0.00 0.00 50 1018.2
20260901054127 73 66 0.0 0.0 0.00 0.00 0.00 46 1018.4
20260901053105 72 54 0.0 0.0 0.00 0.00 0.00 42 1018.4
20260901044600 73 45 0.0 0.0 0.00 0.00 0.00 47 1018.1
20260901043528 73 53 0.0 0.0 0.00 0.00 0.00 47 1018.2
20260901042456 73 41 0.0 0.0 0.00 0.00 0.00 48 1018.1
20260901041427 73 70 0.0 0.0 0.00 0.00 0.00 49 1018.0
20260901040414 73 63 0.0 0.0 0.00 0.00 0.00 51 1017.8
20260901035422 73 46 0.0 0.0 0.00 0.00 0.00 53 1017.6
20260901033323 73 56 0.0 0.0 0.00 0.00 0.00 56 1017.6
20260901032316 73 56 0.0 0.0 0.00 0.00 0.00 58 1017.8
20260901031319 73 56 0.0 0.0 0.00 0.00 0.00 61 1017.9
20260901030256 74 56 0.0 0.0 0.00 0.00 0.00 64 1018.0
20260901025249 74 56 0.0 0.0 0.00 0.00 0.00 68 1018.1
20260901024231 74 56 0.0 0.0 0.00 0.00 0.00 71 1018.3
20260901023200 75 56 0.0 0.0 0.00 0.00 0.00 72 1018.4
20260901022209 75 56 0.0 0.0 0.00 0.00 0.00 73 1018.4
20260901021219 76 56 0.0 0.0 0.00 0.00 0.00 74 1018.5
20260901020220 76 51 0.0 0.0 0.00 0.00 0.00 74 1018.6
20260901015210 76 51 0.0 0.0 0.00 0.00 0.00 74 1018.5
20260901014158 76 55 0.0 0.0 0.00 0.00 0.00 74 1018.5
20260901013208 76 50 0.0 0.0 0.00 0.00 0.00 74 1018.4
20260901012210 77 50 0.0 0.0 0.00 0.00 0.00 74 1018.2
20260901011206 77 50 0.0 0.0 0.00 0.00 0.00 74 1018.1
20260901010206 77 44 0.0 0.0 0.00 0.00 0.00 74 1018.1